Starlink 32678

operational
NORAD ID: 62309 Int'l Des: 2024-239 Owner: SPXS Country: US Constellation: starlink
LEOCIRCULAR

Über Starlink 32678

Beschreibung wird geladen...

Live-Position

3D-Globus wird geladen...

Nächste Überflüge

Höhenverlauf

Altitude vs Time

uPlot chart will show altitude changes over time

Zweizeiliger Elementsatz

1 62309U 24239J 25260.45611349 .00049560 00000-0 12410-2 0 9992
2 62309 53.1564 267.7388 0001618 71.7559 288.3622 15.39619086 43014
Epoch: 17. Sept. 2025 • Age: 24 hours

Aktueller Status

Höhe 465.9 km
Geschwindigkeit 7.63 km/s
Subsatellitenpunkt -51.67°S, 15.71°W
Startdatum 13. Dez. 2024
Alter 0.7 years
Typ internet

Technische Details

Klassifizierung Payload
Masse 730.00 kg
Trockenmasse 700.00 kg
Gesamtmasse 730.00 kg
Länge 0.30 m
Durchmesser 4.10 m
Spannweite 29.00 m
Form Box + pan
Hersteller SPXS
Bus-Typ Starlink V2M
Phasenstatus In Orbit
Besitzer/Staat SPXS/US

Große Konstellationen

Loading constellations...